Location: Melbourne
(37.8170°S, 144.9670°E)
Time: 11:49:25
(UTC+11:00)

Transit 2A - All Passes

Search period start: 23 December 2014 00:00
Search period end: 02 January 2015 00:00
Orbit: 594 x 967 km, 66.7° (Epoch: 21 December)

Date Brightness Start Highest point End Pass type
(mag) Time Alt. Az. Time Alt. Az. Time Alt. Az.
23 Dec - 00:25:40 10° NE 00:29:23 17° ENE 00:32:57 10° ESE visible
23 Dec - 02:06:16 10° NW 02:12:13 66° WSW 02:17:38 10° SSE visible
23 Dec - 03:54:45 10° WSW 03:56:18 11° SW 03:57:50 10° SSW visible
23 Dec - 10:55:48 10° SSW 11:00:16 65° ESE 11:04:33 10° NE daylight
23 Dec - 23:54:24 10° ENE 23:55:56 11° ENE 23:57:26 10° E visible
24 Dec - 01:32:32 10° NNW 01:38:32 87° ENE 01:44:01 10° SSE visible
24 Dec - 03:19:02 10° W 03:22:20 16° SW 03:25:29 10° S visible
24 Dec - 10:22:17 10° SSW 10:26:33 41° ESE 10:30:38 10° NE daylight
24 Dec - 12:06:36 10° WSW 12:09:17 16° WNW 12:11:56 10° NW daylight
25 Dec - 00:59:00 10° NNW 01:04:54 61° ENE 01:10:18 10° SE visible
25 Dec - 02:44:07 10° W 02:48:26 21° SW 02:52:29 10° S visible
25 Dec - 09:48:55 10° S 09:52:46 27° SE 09:56:28 10° ENE daylight
25 Dec - 11:32:10 10° SW 11:35:48 25° WNW 11:39:22 10° NNW daylight
26 Dec - 00:25:43 10° N 00:31:18 41° ENE 00:36:26 10° SE visible
26 Dec - 02:09:34 10° WNW 02:14:35 29° SW 02:19:15 10° S visible
26 Dec - 09:15:43 10° S 09:18:55 19° SE 09:22:00 10° E daylight
26 Dec - 10:58:07 10° SW 11:02:17 41° WNW 11:06:19 10° N daylight
26 Dec - 23:52:43 10° NNE 23:57:43 28° ENE 00:02:23 10° SE visible
27 Dec - 01:35:18 10° NW 01:40:48 41° WSW 01:45:52 10° SSE visible
27 Dec - 08:42:54 10° SSE 08:44:59 13° SE 08:47:02 10° ESE daylight
27 Dec - 10:24:17 10° SSW 10:28:42 67° WNW 10:32:58 10° NNE daylight
27 Dec - 23:20:07 10° NNE 23:24:11 19° ENE 23:28:03 10° ESE visible
28 Dec - 01:01:15 10° NW 01:07:04 58° WSW 01:12:23 10° SSE visible
28 Dec - 09:50:35 10° SSW 09:55:03 76° ESE 09:59:21 10° NNE daylight
28 Dec - 22:48:16 10° NE 22:50:42 13° ENE 22:53:03 10° E visible
29 Dec - 00:27:26 10° NNW 00:33:23 84° WSW 00:38:47 10° SSE visible
29 Dec - 02:14:31 10° WSW 02:17:15 14° SW 02:19:53 10° SSW visible
29 Dec - 09:17:01 10° SSW 09:21:21 47° ESE 09:25:31 10° NE daylight
29 Dec - 11:01:49 10° WSW 11:03:59 14° WNW 11:06:08 10° NW daylight
29 Dec - 23:53:49 10° NNW 23:59:43 68° ENE 00:05:05 10° SSE visible
30 Dec - 01:39:23 10° W 01:43:19 19° SW 01:47:01 10° S visible
30 Dec - 08:43:35 10° S 08:47:34 31° SE 08:51:25 10° ENE daylight
30 Dec - 10:27:09 10° WSW 10:30:30 22° WNW 10:33:49 10° NNW daylight
30 Dec - 23:20:27 10° N 23:26:05 47° ENE 23:31:16 10° SE visible
31 Dec - 01:04:43 10° WNW 01:09:27 26° SW 01:13:51 10° S visible
31 Dec - 08:10:19 10° S 08:13:44 21° SE 08:17:02 10° E daylight
31 Dec - 09:52:59 10° SW 09:56:59 35° WNW 10:00:54 10° N daylight
31 Dec - 22:47:20 10° N 22:52:29 32° ENE 22:57:16 10° SE visible
01 Jan - 00:30:20 10° WNW 00:35:38 36° SW 00:40:31 10° S visible
01 Jan - 07:37:20 10° SSE 07:39:49 15° SE 07:42:15 10° E daylight
01 Jan - 09:19:04 10° SW 09:23:24 57° WNW 09:27:38 10° NNE daylight
01 Jan - 22:14:34 10° NNE 22:18:56 22° ENE 22:23:02 10° ESE visible
01 Jan - 23:56:12 10° NW 00:00:00 37° WNW 00:00:00 37° WNW visible
